Regional Weather Roundup
Issued by NWS

Home | Current Version | Previous Version | Text Only | Print | Product List | Glossary Off
Versions: 1 2 3 4 5 6 7 8 9 10 11 12 13 14 15 16 17 18 19 20 21 22 23 24 25 26 27 28 29 30 31 32 33 34 35 36 37 38 39 40 41 42 43 44 45 46 47 48 49 50

000
ASUS43 KDMX 080903
RWRIA

WEATHER ROUNDUP FOR IOWA
NATIONAL WEATHER SERVICE DES MOINES IA
300 AM CST MON FEB 08 2016

NOTE: "FAIR" INDICATES FEW OR NO CLOUDS BELOW 12,000 FEET WITH NO
SIGNIFICANT WEATHER AND/OR OBSTRUCTIONS TO VISIBILITY.

* - THESE STATIONS ARE NOT NWS STATIONS...THUS NOT UNDER NWS
QUALITY CONTROL.  THEY ALSO DO NOT REPORT WEATHER SUCH
AS PRECIPITATION OR FOG.

IAZ001>003-012>014-020>022-031>034-043>046-081000-
   NORTHWEST IOWA

CITY           SKY/WX    TMP DP  RH WIND       PRES   REMARKS
CARROLL *      FLURRIES  19  14  79 NW26G36   29.92R WCI   1
CHEROKEE *     LGT SNOW  19  16  86 NW23G32   29.94R WCI   2
DENISON *      LGT RAIN  23  19  86 NW29G36   29.93R WCI   6
LE MARS *      LGT SNOW  25  23  93 N17G25    29.99R WCI  11
ORANGE CITY *    N/A     21  19  93 N15G25    29.95R WCI   8
SHELDON *      LGT SNOW  19  18  93 NW28G36   29.92S VSB 1   WCI   1
SIOUX CITY     FLURRIES  28  19  69 N30G39    29.99R WCI  12
SPENCER        LGT SNOW  16  11  80 N38G48    29.91R VSB 3/4 WCI  -6
STORM LAKE *   FLURRIES  19  14  79 NW30G41   29.90S WCI   0
$$

IAZ055>058-069>071-079>083-090>094-081000-
   SOUTHWEST IOWA

CITY           SKY/WX    TMP DP  RH WIND       PRES   REMARKS
ATLANTIC *     FLURRIES  23  19  86 N21G29    29.96R WCI   8
AUDUBON *      FLURRIES  21  16  79 NW17G25   29.93R WCI   7
CLARINDA *     MIX PCPN  30  23  74 NW16G26   29.98F WCI  19
COUNCIL BLFS * LGT RAIN  28  23  80 NW15G24   29.97R WCI  17
CRESTON *      FLURRIES  25  18  74 NW24G31   29.91S WCI   9
HARLAN  *      LGT SNOW  23  21  93 N24G33    29.98S VSB 1   WCI   7
LAMONI         CLOUDY    25  16  68 NW26G36   29.89S WCI   9
RED OAK *      MIX PCPN  28  23  80 N20G26    29.97S WCI  15
SHENANDOAH *   CLOUDY    32  25  74 NW13G20   29.98F WCI  22
$$

IAZ047>049-059>061-072>074-084-081000-
   CENTRAL IOWA

CITY           SKY/WX    TMP DP  RH WIND       PRES   REMARKS
AMES           LGT SNOW  20  15  81 NW24G35   29.85S WCI   3
ANKENY *       MIX PCPN  23  16  74 NW26G37   29.86S WCI   6
BOONE *        LGT SNOW  19  16  86 NW21G26   29.84S WCI   3
CHARITON *     FLURRIES  25  16  68 NW24G40   29.86R WCI   9
DES MOINES     FLURRIES  23  13  65 NW22G39   29.87S WCI   8
GRINNELL*      FLURRIES  22  17  80 NW25G38   29.81F WCI   5
KNOXVILLE *    FLURRIES  25  18  74 NW23G29   29.83S WCI  10
MARSHALLTOWN   LGT SNOW  19  14  81 NW35G45   29.81S WCI  -1
NEWTON *       LGT SNOW  23  18  80 NW21G29   29.83S WCI   8
PELLA *        LGT SNOW  23  21  93 NW15      29.85R WCI  10
$$

IAZ004>006-015-016-023>025-035-036-081000-
   NORTH CENTRAL IOWA

CITY           SKY/WX    TMP DP  RH WIND       PRES   REMARKS
ALGONA *       LGT SNOW  16  12  86 N36G46    29.82S VSB 3/4 WCI  -6
CLARION *      SNOW      16  12  86 NW37G47   29.81F VSB 1/2 WCI  -6
ESTHERVILLE    BLWGSNOW  13  10  88 NW38G49   29.87S VSB 1/4 WCI -10
FORT DODGE *   CLOUDY    18   9  68 NW24G41   29.86F VSB 1/2 WCI   0
MASON CITY     LGT SNOW  15  10  80 NW24      29.79R WCI  -4
FOREST CITY *  LGT SNOW  16  12  86 NW26G38   29.78F WCI  -3
WEBSTER CITY * SNOW      18  14  86 NW39G49   29.82S VSB 1/4 WCI  -4
IOWA FALLS *   LGT SNOW  17  14  86 NW33      29.81F VSB 3/4 WCI  -3
$$

IAZ007>011-017>019-026>030-037>042-050>054-066-081000-
   NORTHEAST IOWA

CITY           SKY/WX    TMP DP  RH WIND       PRES   REMARKS
CEDAR RAPIDS   LGT SNOW  20  16  84 NW26G41   29.74S FOG     WCI   2
CHARLES CITY * FLURRIES  16  10  79 NW21G28   29.75S WCI  -2
DECORAH *      FLURRIES  18  12  79 NW9G16    29.69S WCI   6
DUBUQUE        CLOUDY    23  18  81 NW18      29.67S WCI   9
MONTICELLO *   LGT SNOW  23  19  86 NW16G29   29.71F WCI  10
OELWEIN *      LGT SNOW  18  12  79 NW24G31   29.73S WCI   0
WATERLOO       LGT SNOW  18  12  77 NW21      29.76S WCI   1
$$

IAZ064-065-067-068-078-081000-
   EAST CENTRAL IOWA

CITY           SKY/WX    TMP DP  RH WIND       PRES   REMARKS
DAVENPORT      CLOUDY    30  23  75 NW16      29.70S WCI  19
IOWA CITY      FLURRIES  24  15  68 NW31G43   29.79R WCI   7
MT. PLEASANT * CLOUDY    32  27  80 NW17G26   29.78R WCI  21
MUSCATINE *    CLOUDY    28  18  64 NW26G35   29.76R WCI  13
QUAD CITIES    CLOUDY    32  23  69 NW20G26   29.70S WCI  20
$$

IAZ062-063-075>077-085>089-095>099-081000-
   SOUTHEAST IOWA

CITY           SKY/WX    TMP DP  RH WIND       PRES   REMARKS
BURLINGTON     CLOUDY    30  28  92 NW16G24   29.75R WCI  19
FAIRFIELD *    LGT RAIN  27  19  74 NW28G35   29.79S WCI  11
FORT MADISON * MIX PCPN  30  28  93 NW21G29   29.77R WCI  17
KEOKUK *       CLOUDY    34  30  86 NW10G16   29.77S WCI  26
OSKALOOSA *    LGT SNOW  25  21  86 NW24G32   29.82S WCI   9
OTTUMWA        LGT SNOW  25  22  88 NW22G30   29.82R FOG     WCI  10
WASHINGTON *   CLOUDY    27  18  69 NW23G39   29.80R WCI  12
$$

ABBREVIATIONS USED IN REMARKS
   TC - TEMPERATURES IN CELSIUS
  WCI - WIND CHILL INDEX
   HX - HEAT INDEX
  VSB - VISIBILITY
$$





USA.gov is the U.S. government's official web portal to all federal, state and local government web resources and services.